Wind_Speed
32 33 33 34 34 34 34 35 35 35 34 34 34 33 32 31 30 29 28 28 27 27 28 28 29 29 29 29 29 29 30 30 31 31 31 31 31 31 30 30 29 29
32 33 33 33 33 34 34 35 35 35 34 34 34 33 32 31 30 30 30 30 29 29 30 30 30 30 30 31 31 31 32 32 32 31 31 30 31 31 31 32 32 32
32 32 32 32 32 33 33 34 34 34 33 33 33 33 32 31 30 30 31 31 31 31 31 31 31 31 32 32 33 33 33 33 33 32 31 31 31 31 31 31 31 31
30 29 29 29 30 30 31 31 32 31 31 31 31 31 30 30 29 29 30 30 30 30 31 31 31 31 32 32 33 33 33 32 31 30 29 28 27 27 27 28 28 28
26 26 25 25 25 24 25 26 27 27 26 27 28 27 27 27 27 27 28 28 28 28 29 29 29 28 28 29 29 29 29 29 28 27 25 23 23 24 26 27 28 29
21 21 20 20 19 19 19 20 22 23 23 23 24 24 24 24 25 25 25 25 26 26 26 26 26 26 26 27 27 27 27 27 27 25 24 23 24 25 26 28 29 30
17 17 17 17 16 16 16 16 18 20 22 23 23 24 24 25 25 25 25 25 25 26 26 27 27 27 27 27 27 27 27 27 27 26 26 26 27 27 27 28 29 29
18 19 19 19 19 18 18 17 17 18 21 23 25 27 28 28 28 27 27 26 25 26 27 27 27 27 28 28 28 28 28 27 27 27 27 28 28 28 29 29 28 27
22 22 22 22 23 23 22 21 21 21 22 23 25 28 29 30 31 31 30 28 27 27 27 27 27 28 29 29 30 30 30 29 29 29 30 31 32 32 32 30 29 28
24 25 24 24 26 26 26 25 25 26 27 27 28 29 30 30 31 32 32 31 31 30 31 31 31 32 32 33 33 33 33 33 32 33 34 36 36 35 33 31 31 30
25 25 26 26 27 28 29 29 30 31 31 31 32 33 33 33 33 34 34 35 35 35 35 36 36 36 37 37 38 38 38 38 39 40 41 41 39 36 34 34 33 32
26 26 27 28 30 31 32 34 35 36 35 34 34 35 36 36 37 38 38 39 39 39 39 39 39 40 40 40 41 41 42 43 44 45 45 43 40 38 37 37 37 36
27 27 27 29 32 34 36 37 38 39 38 38 38 38 37 37 37 38 39 39 40 40 40 40 41 41 41 41 41 42 42 42 42 43 42 41 41 41 41 42 42 42
28 28 29 31 33 37 40 41 41 40 39 39 41 41 41 40 40 40 40 40 41 41 41 41 42 42 42 42 42 42 42 41 41 41 42 42 43 44 45 46 46 47
31 32 32 33 35 37 40 43 45 45 45 44 43 43 43 44 44 45 45 44 44 43 43 44 44 45 45 45 44 44 43 43 44 45 45 46 47 47 48 49 50 51
33 32 31 33 35 37 41 44 46 47 47 47 46 46 46 48 49 49 49 49 48 47 48 48 48 48 48 47 46 46 47 47 48 49 50 50 51 52 53 53 54 55
36 35 34 36 37 39 41 44 45 45 46 47 48 49 50 50 51 51 51 50 49 49 50 50 50 50 49 49 49 49 51 52 53 53 54 54 55 55 56 57 57 58
38 37 38 39 39 39 40 42 44 45 46 47 48 48 49 49 50 50 50 50 50 49 50 50 50 49 50 50 51 52 53 54 55 56 56 57 57 58 59 59 60 61
40 39 40 42 42 43 43 44 45 45 46 46 46 46 47 47 48 49 49 48 48 48 48 47 48 48 50 51 53 54 55 56 58 59 59 59 60 60 61 62 62 63
42 43 45 46 47 48 48 49 49 49 49 49 50 50 52 52 53 53 53 52 51 51 51 51 52 53 54 55 56 57 58 58 59 60 60 60 61 61 62 63 64 64
49 50 51 52 53 52 53 53 53 54 54 54 55 56 57 58 59 60 60 60 60 60 60 60 61 61 61 62 62 63 63 62 62 62 62 63 64 65 66 66 67 68
56 56 57 58 58 58 58 58 58 58 58 59 59 60 61 62 62 63 63 64 65 66 66 67 67 67 67 68 69 69 69 68 67 67 67 67 68 69 70 71 73 74
62 62 62 62 62 62 62 61 61 61 61 62 63 64 65 66 66 67 67 68 69 70 70 71 71 71 72 72 72 72 72 72 73 73 73 73 73 75 76 78 80 81
67 67 66 65 65 64 63 62 62 63 63 63 64 65 67 68 69 70 71 72 73 74 75 75 76 76 76 75 75 75 75 75 77 78 79 80 81 82 83 84 85 86
67 67 67 67 66 66 65 66 66 67 67 67 68 68 69 69 70 72 74 75 77 78 79 80 80 81 81 80 80 80 80 80 81 82 83 85 85 86 87 87 88 89
67 68 70 71 71 71 71 71 71 71 71 72 74 74 73 73 73 75 77 80 82 83 83 85 86 86 86 86 86 85 85 85 85 86 86 87 88 88 89 89 90 90
Wind_Direction
266 266 266 266 267 267 268 268 267 267 266 266 265 264 263 263 262 261 260 258 256 253 252 251 251 251 251 252 253 254 255 256 258 258 258 260 262 264 266 266 265 265
264 264 265 266 267 268 268 268 267 267 266 265 264 263 261 260 259 258 257 256 254 252 251 250 250 251 252 252 252 252 253 254 256 257 258 260 262 263 265 266 266 266
262 263 264 265 266 266 267 267 266 265 264 263 262 261 260 258 256 255 255 255 254 252 252 251 251 252 252 252 251 251 252 253 254 256 258 260 262 264 266 268 269 269
261 262 263 265 265 265 265 264 263 262 261 260 259 259 257 255 254 254 254 254 254 253 253 252 252 251 251 251 251 251 252 253 254 255 256 259 262 265 269 271 273 274
263 263 263 263 263 264 263 262 260 258 256 256 257 256 254 253 253 254 254 253 251 250 250 249 249 249 249 249 249 249 251 251 251 251 251 256 263 271 275 278 279 279
262 260 261 262 264 266 266 265 261 258 256 254 254 253 250 248 248 248 248 247 245 243 243 244 245 247 248 248 249 249 249 249 248 248 251 260 270 277 279 281 280 279
264 262 261 262 264 265 268 269 265 260 256 252 249 245 243 242 242 242 242 243 243 242 243 244 245 248 250 252 252 252 252 252 252 254 259 267 274 279 282 282 281 280
267 269 268 267 266 265 265 266 263 258 253 248 245 242 241 241 241 242 242 242 244 246 247 248 249 250 252 254 255 255 257 258 261 264 268 273 277 282 285 286 284 283
267 268 267 265 265 263 261 258 255 252 250 247 246 245 244 244 244 244 244 244 246 248 250 252 252 254 255 257 258 260 262 264 267 270 273 276 279 283 285 284 283 283
263 262 262 263 263 263 261 258 254 253 252 252 252 252 251 251 250 249 249 250 252 254 256 257 259 260 261 262 263 264 266 267 269 273 276 279 281 282 282 282 282 284
257 256 256 258 260 262 261 260 258 257 258 259 260 261 261 260 260 258 257 258 259 261 263 264 265 266 267 267 268 268 269 270 272 275 278 280 280 279 280 282 284 286
258 258 255 254 257 260 260 259 259 259 260 262 264 266 266 265 263 262 262 263 264 265 267 268 268 269 270 271 272 273 274 275 276 278 279 280 279 279 280 282 285 287
258 259 257 254 255 258 260 260 259 259 260 262 264 266 266 265 264 264 264 265 266 267 269 269 270 271 273 275 277 279 279 279 280 280 280 280 280 280 281 282 284 286
257 259 260 259 258 260 261 261 261 262 263 263 265 266 266 266 267 268 268 267 268 269 270 271 272 274 277 280 282 283 283 283 282 282 281 280 280 281 282 283 284 286
260 261 262 261 259 258 259 261 262 264 265 265 265 265 265 265 267 269 269 269 269 270 272 274 275 276 279 282 283 284 285 285 285 286 286 285 285 285 286 287 288 289
260 259 258 256 255 254 257 261 264 266 265 264 263 263 265 267 268 270 271 271 272 273 276 277 277 278 280 281 282 283 285 286 287 288 289 288 288 289 289 290 290 291
257 255 253 251 252 254 257 261 265 266 267 267 267 268 270 272 272 273 273 274 275 276 277 278 277 278 278 280 281 283 285 287 287 289 289 289 289 290 290 291 291 292
253 251 250 250 251 254 257 261 264 267 268 269 271 272 274 274 274 275 275 275 276 276 276 276 277 277 278 280 282 283 285 287 288 289 289 289 290 290 291 292 292 292
252 252 250 250 253 256 260 261 263 264 265 266 267 267 268 270 271 273 274 274 275 274 274 274 275 277 278 280 281 283 285 287 288 289 290 290 290 290 291 291 291 291
250 254 254 255 256 259 261 262 263 263 263 264 264 264 265 266 268 270 271 271 272 272 272 272 273 276 278 279 281 283 284 285 286 287 288 288 288 289 289 290 290 292
248 252 254 256 258 259 261 262 263 264 265 265 265 266 266 267 268 269 269 270 271 271 272 273 274 276 277 279 280 281 282 283 284 284 284 285 286 287 289 291 292 293
251 253 255 257 258 260 262 263 264 265 266 266 266 267 268 269 269 270 270 270 271 271 272 272 273 275 276 278 279 280 281 283 283 284 284 285 286 288 290 291 292 293
254 255 257 258 260 261 262 264 265 265 265 266 267 268 269 270 270 271 271 272 272 272 273 273 274 275 276 277 278 279 281 282 283 284 285 285 286 286 287 289 290 291
256 256 256 258 259 260 261 262 264 265 266 267 269 269 270 271 272 273 273 273 274 274 275 275 276 276 276 277 278 278 279 280 281 282 283 283 284 284 285 286 287 288
254 255 256 257 257 259 261 262 265 267 268 268 269 269 271 272 273 274 274 275 275 276 277 277 278 277 277 277 277 278 278 279 279 280 281 282 283 283 284 285 286 287
253 255 257 258 259 261 262 263 265 267 268 269 270 270 271 272 273 274 275 276 277 277 278 278 278 278 278 278 278 278 278 279 280 280 281 282 283 284 285 286 287 288
Height
10626 10626 10627 10627 10628 10629 10629 10630 10631 10632 10633 10633 10634 10634 10635 10636 10637 10637 10637 10638 10640 10641 10642 10643 10645 10645 10646 10647 10647 10647 10647 10646 10646 10646 10647 10647 10647 10647 10648 10649 10650 10652
10620 10620 10621 10622 10623 10623 10624 10624 10625 10627 10628 10628 10629 10630 10631 10632 10632 10633 10633 10634 10636 10637 10638 10640 10641 10641 10642 10642 10642 10642 10642 10642 10642 10642 10643 10643 10643 10643 10644 10644 10646 10647
10614 10615 10615 10616 10617 10617 10618 10619 10620 10622 10623 10623 10624 10625 10626 10627 10628 10629 10629 10630 10632 10633 10634 10635 10636 10637 10637 10638 10638 10638 10638 10639 10639 10639 10639 10640 10640 10640 10640 10640 10641 10642
10609 10610 10610 10611 10611 10612 10613 10614 10615 10616 10618 10619 10619 10621 10622 10623 10624 10624 10625 10626 10628 10629 10630 10631 10632 10633 10633 10634 10634 10634 10635 10635 10636 10636 10637 10637 10637 10637 10637 10637 10637 10637
10605 10605 10606 10606 10607 10608 10609 10610 10610 10611 10613 10614 10615 10617 10618 10619 10620 10620 10621 10623 10624 10625 10626 10626 10627 10629 10629 10630 10630 10631 10631 10632 10633 10633 10634 10634 10634 10633 10633 10633 10633 10633
10602 10602 10603 10604 10604 10605 10606 10607 10607 10608 10609 10610 10612 10613 10615 10615 10616 10617 10618 10619 10620 10621 10622 10623 10624 10625 10625 10626 10627 10628 10628 10629 10629 10630 10630 10631 10630 10630 10629 10629 10628 10628
10600 10600 10601 10601 10602 10603 10604 10604 10604 10605 10606 10607 10609 10610 10611 10612 10613 10614 10614 10615 10617 10618 10619 10620 10621 10621 10622 10622 10623 10624 10624 10625 10626 10627 10627 10627 10627 10626 10625 10625 10624 10623
10597 10598 10598 10598 10599 10600 10601 10602 10602 10603 10603 10605 10606 10608 10608 10609 10610 10611 10611 10612 10614 10615 10616 10617 10618 10619 10619 10619 10620 10620 10620 10621 10622 10623 10623 10623 10622 10622 10621 10620 10619 10619
10594 10594 10595 10595 10596 10597 10598 10598 10599 10600 10600 10602 10603 10604 10605 10606 10607 10608 10608 10609 10611 10612 10613 10614 10615 10616 10616 10616 10616 10616 10616 10617 10617 10618 10618 10618 10617 10617 10617 10616 10615 10615
10590 10591 10592 10592 10593 10593 10594 10595 10595 10596 10597 10598 10599 10601 10602 10603 10604 10605 10605 10606 10607 10609 10610 10611 10611 10612 10613 10612 10612 10612 10612 10612 10612 10613 10613 10613 10613 10612 10612 10611 10611 10610
10588 10588 10589 10589 10589 10590 10590 10591 10591 10592 10593 10595 10596 10597 10598 10600 10601 10601 10602 10602 10604 10605 10606 10607 10608 10608 10609 10608 10608 10608 10607 10607 10607 10607 10607 10607 10607 10607 10606 10606 10605 10605
10585 10585 10586 10586 10586 10586 10586 10586 10586 10587 10589 10591 10592 10592 10593 10595 10596 10597 10597 10598 10599 10600 10601 10602 10603 10603 10604 10604 10604 10604 10603 10603 10602 10602 10602 10602 10601 10601 10601 10600 10599 10599
10580 10582 10582 10583 10583 10582 10581 10581 10582 10583 10585 10587 10588 10588 10589 10590 10591 10592 10592 10593 10594 10595 10596 10597 10598 10598 10598 10599 10599 10599 10598 10598 10597 10596 10596 10596 10596 10595 10595 10594 10594 10593
10576 10577 10578 10578 10579 10578 10577 10577 10578 10579 10580 10582 10583 10584 10585 10585 10586 10587 10588 10589 10589 10590 10591 10592 10592 10592 10592 10592 10592 10592 10592 10591 10591 10590 10590 10590 10589 10589 10589 10588 10587 10587
10571 10572 10573 10573 10573 10573 10572 10572 10574 10575 10576 10577 10578 10579 10579 10580 10580 10581 10582 10584 10585 10585 10586 10586 10586 10586 10586 10586 10585 10585 10585 10585 10584 10584 10583 10583 10582 10582 10581 10581 10580 10580
10567 10568 10568 10567 10567 10567 10566 10566 10568 10570 10571 10572 10573 10574 10574 10574 10574 10575 10576 10578 10579 10580 10580 10580 10580 10579 10579 10579 10579 10578 10578 10578 10578 10578 10577 10576 10575 10575 10574 10573 10573 10572
10562 10563 10563 10562 10562 10562 10562 10561 10562 10564 10565 10565 10566 10567 10567 10567 10568 10569 10570 10571 10573 10574 10573 10573 10573 10572 10572 10572 10572 10572 10572 10572 10571 10571 10571 10570 10569 10569 10568 10567 10566 10565
10557 10558 10558 10558 10558 10558 10558 10558 10558 10558 10559 10559 10559 10559 10559 10560 10560 10562 10563 10564 10566 10567 10567 10566 10566 10566 10566 10566 10566 10566 10566 10565 10565 10564 10564 10563 10563 10562 10561 10560 10560 10558
10552 10553 10554 10554 10554 10554 10553 10554 10554 10554 10554 10554 10554 10555 10554 10554 10555 10556 10557 10558 10559 10560 10560 10560 10560 10560 10560 10560 10559 10559 10559 10558 10557 10557 10556 10556 10555 10554 10554 10553 10552 10551
10547 10548 10549 10549 10550 10549 10548 10549 10549 10550 10550 10550 10550 10550 10550 10550 10551 10552 10553 10553 10553 10554 10554 10554 10554 10554 10554 10554 10553 10553 10552 10552 10551 10550 10549 10548 10547 10546 10545 10544 10544 10542
10541 10542 10543 10543 10544 10544 10544 10544 10544 10545 10546 10545 10545 10544 10544 10545 10546 10547 10548 10548 10547 10547 10547 10547 10547 10547 10547 10547 10546 10546 10545 10545 10544 10543 10542 10541 10540 10539 10537 10536 10535 10534
10535 10536 10536 10536 10537 10539 10539 10539 10540 10540 10540 10539 10539 10538 10538 10538 10539 10540 10541 10541 10540 10540 10539 10539 10539 10539 10539 10539 10539 10538 10537 10536 10536 10535 10534 10533 10532 10530 10529 10527 10526 10525
10529 10529 10530 10530 10531 10533 10533 10533 10534 10533 10533 10532 10532 10532 10532 10531 10532 10532 10533 10533 10532 10531 10531 10531 10531 10531 10531 10531 10531 10530 10529 10528 10526 10525 10524 10523 10522 10521 10520 10518 10517 10516
10524 10523 10525 10525 10525 10526 10527 10527 10526 10525 10526 10526 10525 10525 10525 10524 10525 10524 10524 10524 10523 10522 10522 10523 10523 10523 10523 10523 10523 10522 10522 10520 10518 10516 10515 10513 10512 10511 10510 10509 10508 10507
10519 10518 10519 10519 10519 10520 10520 10520 10519 10519 10520 10519 10517 10517 10518 10518 10518 10517 10515 10514 10513 10513 10514 10513 10513 10513 10514 10515 10515 10514 10514 10512 10511 10509 10507 10505 10503 10501 10500 10499 10498 10497
10513 10513 10512 10510 10511 10513 10513 10513 10513 10513 10512 10510 10509 10509 10511 10511 10511 10510 10508 10506 10504 10504 10505 10504 10503 10503 10503 10504 10505 10504 10504 10503 10501 10500 10498 10496 10494 10492 10490 10489 10488 10487